www.pogodaiklimat.ru

Погода и климат >> Архив погоды >> Россия >> Хабаровский край >> Горин


ПОГОДА в Горине

  • Прогноз погоды в Горине
  • Монитор погоды в Горине

АРХИВ ПОГОДЫ в Горине

Время (UTC), дата Ветер
(напр.,м/с)
 
Видим.   Явления Облачность Т
(С)
Тd
(С)
f
(%)
Тe
(С)
Тes
(С)
Комфортность P
(гПа)
Po
(гПа)
Тmin
(С)
Tmax
(С)
R
(мм)
R24
(мм)
S
(см)
06 19.08 З 1 50 км {ливн. осадки} 10/10 1000 м
[Cb cap]
+15.4 +13.2 87 +16 +16 1013.7 1002.8
09 19.08 штиль 0 50 км 10/10 1000 м
[Cb cap]
+15.4 +13.4 88 +15 +15 1013.6 1002.7 +16.2 5
12 19.08 СЗ 1 50 км 10/10 1000 м
[Cb cap]
+14.1 +12.4 89 +14 +14 1014.4 1003.4
15 19.08 СЗ 1 50 км 10/10 600 м
[Cb cap]
+13.7 +12.2 91 +14 +14 1014.6 1003.6
18 19.08 СЗ 1 10 км слаб. ливневой дождь 10/10 600 м
[Cb cap]
+13.4 +11.8 90 +14 +14 1014.3 1003.3
21 19.08 СЗ 1 10 км в посл. час ливневой дождь 10/10 600 м
[Cb cap]
+13.1 +11.6 91 +13 +13 1014.3 1003.3 +13.1 2
00 20.08 СЗ 1 2000 м морось {ливн. осадки} 10/10 600 м
[St]
+13.2 +11.5 89 +13 +13 1014.2 1003.2 +12.9
03 20.08 З 1 4000 м слаб. дождь {морось} 10/10 600 м
[Cb cap]
+13.7 +12.0 89 +14 +14 1014.4 1003.4
06 20.08 штиль 0 4000 м слаб. дождь {морось} 10/0
[As op]
+15.2 +14.1 93 +15 +17 1014.0 1003.0
09 20.08 З 1 20 км слаб. дождь 10/0 600 м
[As op]
+14.6 +12.8 89 +15 +15 1014.1 1003.1 +15.9 3
12 20.08 З 1 4000 м слаб. дождь 10/0 600 м
[As op]
+14.2 +12.6 90 +14 +14 1014.9 1003.9
15 20.08 З 1 4000 м слаб. дождь 10/10 600 м
[Frnb Ns]
+13.9 +12.4 91 +14 +14 1014.7 1003.7
18 20.08 СЗ 1 4000 м слаб. дождь 10/10 600 м
[Frnb Ns]
+13.5 +12.1 91 +14 +14 1014.6 1003.6
21 20.08 СЗ 1 500 м туман {дождь} ?/? +13.6 +12.2 91 +14 +14 1015.2 1004.2 +13.5 3
00 21.08 СЗ 1 20 км в посл. час туман {дождь} 10/10 600 м
[St]
+14.2 +12.7 91 +14 +14 1015.4 1004.4
03 21.08 СЗ 1 20 км в посл. час морось 10/10 600 м
[Sc]
+16.0 +14.0 88 +17 +17 1014.8 1003.9
06 21.08 СЗ 1 4000 м морось 10/10 600 м
[St]
+15.9 +13.9 88 +17 +17 1013.7 1002.8
09 21.08 СЗ 1 50 км {морось} 10/8 1000 м
[Sc Ac As]
+15.8 +13.5 86 +16 +16 1013.6 1002.7 +16.7 0.3
12 21.08 СЗ 1 50 км {морось} 10/10 1000 м
[Sc]
+15.3 +13.5 89 +16 +16 1013.7 1002.8
15 21.08 штиль 0 50 км 10/10 1000 м
[Sc]
+14.8 +13.2 90 +14 +14 1013.6 1002.6
18 21.08 штиль 0 50 км 10/10 1000 м
[Sc]
+14.2 +12.6 90 +14 +14 1013.7 1002.8
21 21.08 штиль 0 50 км 10/10 1000 м
[Sc]
+14.1 +12.5 90 +14 +14 1014.3 1003.4 +13.7
00 22.08 С 1 50 км 10/10 1000 м
[Sc]
+15.9 +12.8 82 +17 +17 1014.5 1003.6
03 22.08 СЗ 1 50 км 10/10 1000 м
[Cu Sc]
+16.6 +13.2 80 +17 +17 1014.4 1003.5
06 22.08 СЗ 1 50 км 10/10 1000 м
[Sc]
+15.5 +13.0 85 +16 +16 1014.1 1003.2
09 22.08 СЗ 1 10 км слаб. ливневой дождь 10/10 600 м
[Cb cap]
+15.2 +13.1 87 +16 +16 1014.4 1003.5 +17.2 0.0
12 22.08 СЗ 1 50 км {ливн. осадки} 10/10 1000 м
[Sc]
+14.7 +12.8 88 +15 +15 1015.0 1004.0
15 22.08 СЗ 1 50 км 10/10 1000 м
[Sc]
+14.3 +12.5 89 +15 +15 1015.0 1004.0
18 22.08 СЗ 1 10 км слаб. ливневой дождь 10/10 600 м
[Cb cap]
+13.8 +12.1 89 +14 +14 1015.0 1004.0
21 22.08 СЗ 1 20 км {ливн. осадки} 10/10 1000 м
[Sc]
+13.8 +11.8 88 +14 +14 1015.3 1004.3 +13.6 0.0
00 23.08 СЗ 1 10 км слаб. ливневой дождь 10/10 600 м
[Cb cap]
+14.8 +12.6 87 +15 +15 1015.5 1004.5
03 23.08 СЗ 1 50 км {ливн. осадки} 10/10 1000 м
[Cb cap]
+15.8 +12.5 81 +16 +16 1015.1 1004.2
06 23.08 СЗ 1 50 км {ливн. осадки} 10/10 1000 м
[Sc diur, vesp]
+16.5 +11.8 74 +17 +17 1014.6 1003.7
09 23.08 З 1 50 км 10/0
[Ac und]
+15.6 +12.2 80 +16 +16 1014.5 1003.6 +17.0 2
12 23.08 З 1 50 км 10/10 1000 м
[Sc]
+14.7 +12.1 84 +15 +15 1014.7 1003.7
15 23.08 З 1 10 км слаб. ливневой дождь 10/10 600 м
[Cb cap]
+14.4 +12.3 87 +15 +15 1014.4 1003.4
18 23.08 СЗ 1 10 км слаб. ливневой дождь 10/10 600 м
[Cb cap]
+13.9 +12.2 89 +14 +14 1014.1 1003.1
21 23.08 С 1 50 км в посл. час ливневой дождь 10/8 1000 м
[Sc diur, vesp Ci sp]
+13.7 +12.0 89 +14 +14 1014.1 1003.1 +13.3 0.5
00 24.08 С 1 50 км {ливн. осадки} 10/8 600 м
[Frnb Ac trans Ci sp]
+15.7 +11.7 77 +16 +17 1013.8 1002.9
03 24.08 СЗ 2 50 км 10/4 600 м
[Sc diur, vesp Ci sp]
+18.2 +12.2 68 +19 +25 1013.2 1002.4
06 24.08 СЗ 1 50 км 10/10 1000 м
[Sc]
+18.1 +11.9 67 +19 +19 1012.4 1001.6
09 24.08 штиль 0 50 км 9/4 1000 м
[Sc diur, vesp Ci sp]
+17.1 +12.6 75 +17 +17 1012.4 1001.6 +19.1
12 24.08 З 1 50 км 10/10 1000 м
[]
+12.9 +11.2 89 +13 +13 1013.4 1002.4
15 24.08 З 1 50 км 8/0
[Ac As]
+13.2 +11.0 87 +13 +13 1013.5 1002.5
18 24.08 З 1 50 км 10/10 600 м
[Frnb]
+12.4 +10.1 86 +12 +12 1013.1 1002.1
21 24.08 СЗ 1 20 км 10/10 1000 м
[Sc]
+11.5 +9.4 87 +11 +11 1013.8 1002.7 +10.7
00 25.08 С 2 50 км 10/0
[Ac und]
+12.4 +9.5 82 +11 +14 1013.9 1002.9
03 25.08 С 1 50 км 10/0
[Ac As Ci sp]
+15.0 +9.9 72 +16 +21 1012.8 1001.9
06 25.08 СЗ 1 50 км 9/0
[Cc]
+17.9 +10.9 64 +19 +26 1011.0 1000.2
09 25.08 штиль 0 50 км 8/0
[Cc]
+17.7 +12.1 70 +18 +18 1010.3 999.5 +19.6
12 25.08 З 1 50 км 8/0
[Ac trans Ci sp]
+13.0 +11.4 90 +13 +13 1011.4 1000.4
15 25.08 штиль 0 50 км 4/0
[Ci sp]
+10.9 +9.4 90 +10 +10 1011.0 1000.0
18 25.08 штиль 0 50 км 3/0
[Ac trans]
+9.7 +8.2 90 +9 +9 1010.8 999.7
21 25.08 штиль 0 50 км 3/0
[Ac cast]
+9.9 +8.5 91 +9 +10 1010.8 999.7 +9.3
00 26.08 ЮВ 1 50 км {туман} 8/8 1000 м
[Cu Sc]
+16.4 +12.3 77 +17 +19 1010.1 999.2
03 26.08 ЮВ 1 50 км ясно +23.1 +13.8 56 +27 +41 душно 1008.2 997.6

 

Местоположение метеостанции Горин (Хабаровский край, Россия): широта 51.20 долгота 136.80 высота над уровнем моря 92 м.

В архиве по умолчанию представлена погода в Горине за последнюю неделю. Архивные данные за месяц целиком и за предыдущие месяцы, начиная с января 2011 года, Вы можете получить, выбрав интересующий диапазон дат из раскрывающегося списка и нажав кнопку "Ввод!".


*Определитесь, кто Вы:
робот инопланетянин человек

Внимание! Время в таблицах - всемирное. Для получения местного времени необходимо прибавить поправку, которая равна 10 ч.

Смотрите также архив погоды в соседних городах и на ближайших метеорологических станциях:

Погода в Комсомольске-на-Амуре (Хабаровский край, Россия) (76 км)
Погода в Амурске (Хабаровский край, Россия) (95 км)
Погода в Нижнетамбовском (Хабаровский край, Россия) (96 км)
Погода в Хуларине (Хабаровский край, Россия) (128 км)
Погода в Им. Полины Осипенко (Хабаровский край, Россия) (137 км)
Погода в Веселой Горке (Хабаровский край, Россия) (140 км)
Погода в Сегжеме (Хабаровский край, Россия) (147 км)
Погода в Циммермановка (Хабаровский край, Россия) (168 км)
Погода в Троицком (Хабаровский край, Россия) (195 км)
Погода в Куре (Хабаровский край, Россия) (210 км)

Пояснения к столбцам:

Ветер - указаны скорость ветра в м/с - средняя за 10 мин, порывы в срок и между сроками (в фигурных скобках) и направление, откуда дует ветер: С - северный, СВ - северо-восточный, В - восточный, ЮВ - юго-восточный, Ю - южный, ЮЗ - юго-западный, З - западный, СЗ - северо-западный.
Видимость - горизонтальная дальность видимости в метрах или километрах. При видимости от 1 до 10 км при отсутствии осадков обычно наблюдается дымка, при ухудшении видимости до 1 км и менее - туман. В сухую погоду видимость может ухудшаться дымом, пылью или мглою.
Явления - указаны атмосферные явления, наблюдавшиеся в срок или в последний час перед сроком; фигурными скобками обозначены явления, наблюдавшиеся между сроками (за 1-3 часа до срока); квадратными скобками обозначены град или гололедные отложения с указанием их диаметра в мм.
Облачность - указаны через наклонную черту общая и нижняя облачность в баллах и высота нижней границы облаков в метрах; квадратными скобками обозначены формы облаков: Ci - перистые, Cs - перисто-слоистые, Cc - перисто-кучевые, Ac - высококучевые, As - высокослоистые, Sc - слоисто-кучевые, Ns - слоисто-дождевые, Cu - кучевые, Cb - кучево-дождевые. Подробнее классификацию облаков см. в Атласе облаков (PDF).
T - Температура воздуха - температура, измеренная на высоте 2 м над землей.
Td - Температура точки росы - температура, при понижении до которой содержащийся в воздухе водяной пар достигнет насыщения.
f - Относительная влажность воздуха - влажноcть воздуха, измеренная на высоте 2 м над землей.
Te - Эффективная температура - температура, которую ощущает одетый по сезону человек в тени. Характеристика душности погоды. При расчете учитывается влияние влажности воздуха и скорости ветра на теплоощущения человека.
Tes - Эффективная температура на солнце - температура, которую ощущает человек, с поправкой на солнечный нагрев. Характеристика знойности погоды. Зависит от высоты солнца над горизонтом, облачности и скорости ветра. Ночью, в пасмурную погоду, а также при ветре 12 м/с и более поправка равна нулю.
P - Атмосферное давление - приведенное к уровню моря атмосферное давление.
Po - Атмосферное давление - измеренное на уровне метеостанции атмосферное давление.
Tmin - Минимальная температура - минимум температуры воздуха на высоте 2 м над землей.
Tmax - Максимальная температура - максимум температуры воздуха на высоте 2 м над землей.
R - Количество осадков - Количество выпавших осадков за период времени, мм. При наведении курсора мыши на число - период времени, за который выпало указанное количество осадков.
R24 - Количество осадков - Количество выпавших осадков за 24 часа, мм.
S - Снежный покров - Высота снежного покрова, см. При наведении курсора мыши на число - состояние снежного покрова и степень покрытия местности в баллах.